KE0YON Weather Reports


time (UTC)temp
C
wind
direction
speed
KPH
gust
KPH
rain 1hr
cm
rain 24hr
cm
rain mn
cm
humidity
%
barometer
mb
20260906211519 31 136 16.1 22.5 0.00 0.00 0.00 34 1016.9
20260906210031 31 146 12.9 20.9 0.00 0.00 0.00 36 1016.9
20260906204527 31 111 14.5 20.9 0.00 0.00 0.00 37 1017.0
20260906203035 32 136 17.7 25.7 0.00 0.00 0.00 33 1017.3
20260906201508 31 108 12.9 27.4 0.00 0.00 0.00 35 1017.3
20260906200030 31 113 14.5 25.7 0.00 0.00 0.00 35 1017.4
20260906194524 31 133 12.9 22.5 0.00 0.00 0.00 37 1017.6
20260906193030 30 133 14.5 24.1 0.00 0.00 0.00 38 1018.1
20260906191530 30 139 9.7 16.1 0.00 0.00 0.00 39 1018.3
20260906190012 30 94 11.3 19.3 0.00 0.00 0.00 39 1018.6
20260906184521 30 108 12.9 20.9 0.00 0.00 0.00 39 1018.8
20260906183035 30 141 3.2 12.9 0.00 0.00 0.00 41 1019.2
20260906181536 28 113 9.7 17.7 0.00 0.00 0.00 43 1019.5
20260906180040 28 90 9.7 12.9 0.00 0.00 0.00 43 1019.8
20260906174520 27 355 6.4 16.1 0.00 0.00 0.00 44 1020.2
20260906173025 28 5 4.8 16.1 0.00 0.00 0.00 44 1020.3
20260906171527 27 63 11.3 16.1 0.00 0.00 0.00 46 1020.4
20260906170033 26 89 6.4 19.3 0.00 0.00 0.00 47 1020.4
20260906164543 26 13 8.0 19.3 0.00 0.00 0.00 48 1020.5
20260906163025 26 75 6.4 14.5 0.00 0.00 0.00 49 1020.7
20260906161523 25 50 4.8 12.9 0.00 0.00 0.00 50 1020.6
20260906160038 25 346 0.0 6.4 0.00 0.00 0.00 52 1020.6
20260906154534 24 338 3.2 12.9 0.00 0.00 0.00 55 1020.7
20260906153039 23 84 4.8 11.3 0.00 0.00 0.00 56 1020.6
20260906151520 22 86 4.8 12.9 0.00 0.00 0.00 59 1020.7
20260906150043 22 88 9.7 16.1 0.00 0.00 0.00 58 1020.5
20260906144536 22 86 8.0 11.3 0.00 0.00 0.00 59 1020.5
20260906143037 22 46 6.4 11.3 0.00 0.00 0.00 60 1020.4
20260906141542 21 45 11.3 14.5 0.00 0.00 0.00 61 1020.3
20260906140022 20 356 9.7 14.5 0.00 0.00 0.00 62 1020.2
20260906134527 20 23 11.3 14.5 0.00 0.00 0.00 62 1020.2
20260906133031 20 16 11.3 14.5 0.00 0.00 0.00 63 1020.0
20260906131531 18 15 9.7 12.9 0.00 0.00 0.00 66 1019.6
20260906130043 18 18 11.3 16.1 0.00 0.00 0.00 67 1019.3
20260906124524 18 6 12.9 17.7 0.00 0.00 0.00 68 1019.2
20260906123004 18 11 14.5 19.3 0.00 0.00 0.00 68 1019.1
20260906121513 18 7 14.5 22.5 0.00 0.00 0.00 66 1019.0
20260906120015 18 12 16.1 20.9 0.00 0.00 0.00 67 1018.8
20260906114535 18 352 16.1 19.3 0.00 0.00 0.00 67 1018.8
20260906113026 18 352 12.9 17.7 0.00 0.00 0.00 69 1018.8
20260906111506 18 349 11.3 14.5 0.00 0.00 0.00 69 1018.7
20260906110018 18 333 12.9 19.3 0.00 0.00 0.00 67 1018.7
20260906104519 18 345 14.5 16.1 0.00 0.00 0.00 67 1018.7
20260906103024 18 338 11.3 17.7 0.00 0.00 0.00 68 1018.7
20260906101528 18 326 14.5 16.1 0.00 0.00 0.00 68 1018.7
20260906100011 18 339 16.1 19.3 0.00 0.00 0.00 68 1018.7
20260906094527 18 342 12.9 17.7 0.00 0.00 0.00 67 1018.6
20260906093019 18 8 14.5 16.1 0.00 0.00 0.00 68 1018.5
20260906091530 18 12 12.9 16.1 0.00 0.00 0.00 68 1018.6
20260906090033 18 14 14.5 19.3 0.00 0.00 0.00 68 1018.5
20260906084514 18 7 12.9 17.7 0.00 0.00 0.00 67 1018.6
20260906083018 18 16 12.9 19.3 0.00 0.00 0.00 66 1018.7
20260906081540 18 32 14.5 19.3 0.00 0.00 0.00 66 1018.8
20260906080027 19 7 19.3 22.5 0.00 0.00 0.00 65 1018.5
20260906074532 19 8 20.9 24.1 0.00 0.00 0.00 64 1018.2
20260906073016 19 23 17.7 20.9 0.00 0.00 0.00 63 1018.2
20260906071518 20 21 17.7 20.9 0.00 0.00 0.00 62 1018.1
20260906070028 20 14 14.5 19.3 0.00 0.00 0.00 60 1018.2
20260906064527 20 27 16.1 19.3 0.00 0.00 0.00 59 1018.2
20260906063037 21 6 16.1 19.3 0.00 0.00 0.00 57 1018.2
20260906061529 21 22 12.9 16.1 0.00 0.00 0.00 56 1018.3
20260906060023 21 27 14.5 17.7 0.00 0.00 0.00 55 1018.4
20260906054529 22 343 6.4 8.0 0.00 0.00 0.00 49 1018.4
20260906053032 22 20 11.3 14.5 0.00 0.00 0.00 51 1018.7
20260906051531 22 117 4.8 8.0 0.00 0.00 0.00 49 1018.7
20260906050020 22 69 11.3 16.1 0.00 0.00 0.00 49 1018.7
20260906044528 23 70 8.0 14.5 0.00 0.00 0.00 47 1018.3
20260906043029 23 68 6.4 14.5 0.00 0.00 0.00 47 1018.3
20260906041537 23 34 12.9 14.5 0.00 0.00 0.00 46 1018.4
20260906040038 25 129 0.0 1.6 0.00 0.00 0.00 42 1018.2
20260906034524 25 143 0.0 9.7 0.00 0.00 0.00 43 1018.3
20260906033027 26 123 8.0 14.5 0.00 0.00 0.00 42 1018.2
20260906031546 26 97 8.0 12.9 0.00 0.00 0.00 45 1018.0
20260906030034 26 104 8.0 12.9 0.00 0.00 0.00 43 1017.8
20260906024533 27 117 8.0 14.5 0.00 0.00 0.00 35 1017.6
20260906023024 27 91 8.0 9.7 0.00 0.00 0.00 33 1017.1
20260906021532 28 162 1.6 8.0 0.00 0.00 0.00 30 1016.9
20260906020048 30 62 1.6 3.2 0.00 0.00 0.00 28 1016.6
20260906014535 30 340 0.0 1.6 0.00 0.00 0.00 27 1016.5
20260906013031 31 335 0.0 1.6 0.00 0.00 0.00 26 1016.4
20260906011529 32 255 0.0 1.6 0.00 0.00 0.00 25 1016.4
20260906010031 32 37 0.0 1.6 0.00 0.00 0.00 25 1016.4
20260906004531 33 130 3.2 4.8 0.00 0.00 0.00 25 1016.4
20260906003023 33 238 1.6 6.4 0.00 0.00 0.00 24 1016.3
20260906001526 32 243 6.4 12.9 0.00 0.00 0.00 25 1016.3
20260906000028 31 233 6.4 19.3 0.00 0.00 0.00 28 1016.3
20260905234533 32 222 14.5 22.5 0.00 0.00 0.00 26 1016.3
20260905233033 32 143 14.5 20.9 0.00 0.00 0.00 24 1016.2
20260905231520 33 129 11.3 16.1 0.00 0.00 0.00 22 1016.1
20260905230028 33 121 8.0 16.1 0.00 0.00 0.00 22 1016.2
20260905224527 33 128 8.0 20.9 0.00 0.00 0.00 22 1016.2
20260905223039 33 156 8.0 16.1 0.00 0.00 0.00 21 1016.2
20260905221544 34 133 8.0 14.5 0.00 0.00 0.00 21 1016.2
20260905220027 34 120 8.0 17.7 0.00 0.00 0.00 21 1016.4
20260905214529 33 60 4.8 11.3 0.00 0.00 0.00 21 1016.4
20260905213034 33 122 8.0 22.5 0.00 0.00 0.00 21 1016.4